DW6885 Weather Reports


Display with metric or nautical units.
time (UTC)temp
F
wind
direction
speed
MPH
gust
MPH
rain 1hr
in
rain 24hr
in
rain mn
in
humidity
%
barometer
mb
20150330022002 22 18 0.0 0.0 0.00 0.03 0.03 80 1018.5
20150330021505 23 18 0.0 0.0 0.00 0.04 0.03 80 1018.5
20150330020506 23 18 0.0 1.0 0.00 0.04 0.03 78 1018.6
20150330020402 22 18 0.0 0.0 0.00 0.03 0.03 78 1018.6
20150330014902 23 18 0.0 0.0 0.00 0.03 0.03 76 1019.0
20150330014506 23 18 0.0 0.0 0.00 0.04 0.03 76 1019.0
20150330013402 23 18 0.0 0.0 0.00 0.03 0.03 76 1019.1
20150330012506 24 18 0.0 0.0 0.00 0.05 0.03 74 1019.3
20150330011902 24 18 0.0 0.0 0.00 0.03 0.03 73 1019.5
20150330011506 25 18 0.0 0.0 0.00 0.06 0.03 73 1019.5
20150330010506 25 18 0.0 0.0 0.00 0.06 0.03 70 1019.6
20150330010402 25 18 0.0 0.0 0.00 0.03 0.03 70 1019.6
20150330005506 25 18 0.0 0.0 0.00 0.07 0.03 71 1019.7
20150330004702 25 18 0.0 0.0 0.00 0.03 0.03 69 1019.7
20150330004506 26 18 0.0 0.0 0.00 0.07 0.03 69 1019.7
20150330003202 26 18 0.0 0.0 0.00 0.03 0.03 67 1019.8
20150330002506 27 18 0.0 0.0 0.00 0.09 0.03 65 1019.7
20150330001702 26 18 0.0 0.0 0.00 0.03 0.03 63 1019.7
20150330001506 27 18 0.0 0.0 0.00 0.10 0.03 62 1019.6
20150330000202 27 18 0.0 1.0 0.00 0.03 0.03 61 1019.6
20150329234702 28 18 0.0 0.0 0.00 0.03 0.03 61 1019.3
20150329234506 28 18 0.0 0.0 0.00 0.11 0.03 62 1019.2
20150329233506 29 18 0.0 0.0 0.00 0.12 0.03 62 1019.3
20150329233003 29 18 0.0 0.0 0.00 0.03 0.03 62 1019.2
20150329232506 30 18 0.0 0.0 0.00 0.12 0.03 63 1019.2
20150329231502 30 18 0.0 0.0 0.00 0.03 0.03 60 1019.2
20150329230003 32 18 0.0 1.0 0.00 0.03 0.03 60 1019.4
20150329225506 33 18 0.0 1.0 0.00 0.15 0.03 52 1019.5
20150329224506 34 271 0.0 2.0 0.00 0.16 0.03 47 1019.6
20150329224402 33 271 0.0 2.0 0.00 0.04 0.03 47 1019.5
20150329223507 35 271 0.0 2.0 0.00 0.16 0.03 40 1019.5
20150329222902 35 271 0.0 2.0 0.00 0.04 0.03 40 1019.4
20150329222506 36 248 0.0 3.0 0.00 0.17 0.03 37 1019.4
20150329221402 36 218 0.0 4.0 0.00 0.04 0.03 33 1019.3
20150329215902 37 355 1.0 6.0 0.00 0.04 0.03 29 1019.3
20150329215506 38 348 1.0 7.0 0.00 0.19 0.03 26 1019.3
20150329214506 38 120 2.0 7.0 0.00 0.19 0.03 24 1019.2
20150329214401 38 73 1.0 4.0 0.00 0.04 0.03 25 1019.2
20150329213506 39 12 1.0 6.0 0.00 0.19 0.03 30 1019.2
20150329212702 40 73 0.0 6.0 0.00 0.04 0.03 25 1019.1
20150329212507 40 320 2.0 6.0 0.00 0.19 0.03 24 1019.1
20150329211202 41 329 1.0 4.0 0.00 0.04 0.03 26 1019.1
20150329210506 41 203 2.0 7.0 0.00 0.19 0.03 26 1019.1
20150329205702 41 70 1.0 5.0 0.00 0.04 0.03 26 1019.2
20150329204506 41 333 3.0 7.0 0.00 0.19 0.03 24 1019.3
20150329204201 41 225 2.0 7.0 0.00 0.04 0.03 24 1019.2
20150329203506 41 204 2.0 5.0 0.00 0.19 0.03 26 1019.4
20150329202701 41 338 1.0 8.0 0.00 0.04 0.03 24 1019.6
20150329202505 41 72 1.0 5.0 0.00 0.19 0.03 25 1019.6
20150329201506 41 251 1.0 3.0 0.00 0.19 0.03 28 1019.5
20150329201002 40 19 1.0 4.0 0.00 0.04 0.03 24 1019.6
20150329200505 40 4 1.0 5.0 0.00 0.19 0.03 27 1019.6
20150329195506 40 261 1.0 10.0 0.00 0.19 0.03 23 1019.7
20150329195504 40 261 0.0 10.0 0.00 0.04 0.03 23 1019.7
20150329194003 40 360 1.0 9.0 0.00 0.06 0.03 25 1019.9
20150329192506 40 277 2.0 9.0 0.00 0.19 0.03 26 1020.1
20150329192402 39 242 1.0 5.0 0.00 0.06 0.03 25 1020.1
20150329191506 39 316 2.0 9.0 0.00 0.19 0.03 27 1020.2
20150329190902 39 299 3.0 11.0 0.00 0.06 0.03 26 1020.2
20150329190506 39 33 3.0 12.0 0.00 0.19 0.03 25 1020.3
20150329185506 39 293 1.0 9.0 0.00 0.19 0.03 25 1020.6
20150329185403 39 15 1.0 9.0 0.00 0.06 0.03 24 1020.6
20150329184505 39 322 2.0 10.0 0.01 0.19 0.03 25 1020.7
20150329183903 38 212 0.0 10.0 0.00 0.10 0.03 25 1020.8
20150329183505 39 358 5.0 10.0 0.01 0.19 0.03 26 1020.8
20150329182506 38 211 2.0 7.0 0.01 0.19 0.03 29 1020.9
20150329182402 37 202 2.0 8.0 0.01 0.10 0.03 27 1021.0
20150329181506 38 357 3.0 8.0 0.01 0.19 0.03 28 1021.2
20150329180702 37 34 1.0 6.0 0.01 0.10 0.03 28 1021.3
20150329180506 38 318 1.0 8.0 0.01 0.19 0.03 31 1021.3
20150329175505 37 69 2.0 6.0 0.02 0.19 0.03 28 1021.3
20150329175201 37 343 3.0 6.0 0.01 0.10 0.03 30 1021.5
20150329173702 36 63 1.0 6.0 0.02 0.15 0.03 32 1021.6
20150329172506 37 339 2.0 8.0 0.02 0.18 0.02 28 1021.6
20150329172203 37 355 1.0 6.0 0.01 0.14 0.02 30 1021.6
20150329171506 36 278 2.0 3.0 0.02 0.18 0.02 31 1021.6
20150329170701 35 347 1.0 8.0 0.02 0.14 0.02 32 1021.8
20150329170505 36 342 2.0 9.0 0.02 0.18 0.02 30 1021.8
20150329165507 36 300 1.0 5.0 0.02 0.18 0.02 33 1022.0
20150329165003 35 233 0.0 6.0 0.02 0.14 0.02 32 1022.0
20150329163506 35 4 2.0 7.0 0.01 0.17 0.01 30 1022.2
20150329163503 35 5 1.0 7.0 0.01 0.17 0.01 30 1022.2
20150329162506 35 64 1.0 5.0 0.01 0.17 0.01 37 1022.3
20150329162001 34 5 1.0 5.0 0.01 0.17 0.01 34 1022.3
20150329160401 33 81 1.0 5.0 0.00 0.16 0.00 36 1022.4
20150329154902 32 297 3.0 11.0 0.00 0.16 0.00 36 1022.6
20150329153401 32 270 1.0 6.0 0.00 0.16 0.00 39 1022.8
20150329152506 31 297 1.0 9.0 0.00 0.16 0.00 40 1022.8
20150329151903 30 350 4.0 9.0 0.00 0.16 0.00 40 1023.0
20150329151506 31 316 4.0 9.0 0.00 0.16 0.00 40 1022.9
20150329150202 29 323 3.0 9.0 0.00 0.16 0.00 40 1023.0
20150329145505 30 313 2.0 8.0 0.00 0.16 0.00 41 1023.0
20150329144702 29 93 1.0 8.0 0.00 0.16 0.00 43 1023.0
20150329143201 28 153 1.0 7.0 0.00 0.16 0.00 49 1023.2
20150329142505 27 312 2.0 8.0 0.00 0.16 0.00 45 1023.1
20150329141701 26 237 4.0 8.0 0.00 0.16 0.00 46 1023.1
20150329141506 27 355 2.0 5.0 0.00 0.16 0.00 51 1023.2
20150329140506 26 7 0.0 7.0 0.00 0.16 0.00 50 1023.1
20150329140201 26 5 2.0 7.0 0.00 0.16 0.00 50 1023.1
20150329135506 26 43 2.0 7.0 0.00 0.16 0.00 53 1023.1
20150329134503 25 16 1.0 4.0 0.00 0.16 0.00 59 1023.1
20150329133002 24 318 2.0 6.0 0.00 0.16 0.00 54 1023.1
20150329132506 25 66 3.0 7.0 0.00 0.16 0.00 55 1023.0
20150329131505 24 322 2.0 3.0 0.00 0.16 0.00 56 1022.9
20150329131502 23 344 2.0 4.0 0.00 0.16 0.00 56 1022.9
20150329130506 23 348 1.0 5.0 0.00 0.16 0.00 60 1022.8
20150329125902 22 300 0.0 5.0 0.00 0.16 0.00 69 1022.8
20150329125505 21 319 1.0 3.0 0.00 0.16 0.00 70 1022.8
20150329124402 19 197 0.0 4.0 0.00 0.16 0.00 79 1022.7
20150329122902 14 333 0.0 1.0 0.00 0.16 0.00 92 1022.6
20150329122506 13 333 0.0 1.0 0.00 0.16 0.00 94 1022.5
20150329121402 11 333 0.0 0.0 0.00 0.16 0.00 94 1022.4
20150329120505 10 333 0.0 0.0 0.00 0.16 0.00 94 1022.3
20150329115902 9 333 0.0 0.0 0.00 0.16 0.00 93 1022.3
20150329115505 9 333 0.0 0.0 0.00 0.16 0.00 93 1022.3
20150329114202 7 334 0.0 0.0 0.00 0.16 0.00 92 1022.1
20150329113505 7 334 0.0 0.0 0.00 0.16 0.00 92 1022.0
20150329112701 7 334 0.0 0.0 0.00 0.16 0.00 91 1021.9
20150329111506 7 334 0.0 0.0 0.00 0.16 0.00 90 1021.6
20150329111201 7 334 0.0 0.0 0.00 0.16 0.00 90 1021.7
20150329105701 7 334 0.0 0.0 0.00 0.16 0.00 90 1021.3
20150329104505 8 334 0.0 0.0 0.00 0.16 0.00 90 1021.1
20150329104304 8 334 0.0 0.0 0.00 0.16 0.00 90 1021.1
20150329102505 9 334 0.0 0.0 0.00 0.16 0.00 90 1020.7
20150329102503 8 334 0.0 0.0 0.00 0.16 0.00 90 1020.7
20150329101002 9 334 0.0 0.0 0.00 0.16 0.00 89 1020.5
20150329100507 10 334 0.0 0.0 0.00 0.16 0.00 89 1020.4
20150329095506 10 334 0.0 0.0 0.00 0.16 0.00 88 1020.3
20150329095502 10 334 0.0 1.0 0.00 0.16 0.00 88 1020.3
20150329094506 11 334 0.0 1.0 0.00 0.16 0.00 88 1020.0
20150329093904 11 334 0.0 0.0 0.00 0.16 0.00 88 1019.9
20150329092401 11 334 0.0 2.0 0.00 0.16 0.00 87 1019.7
20150329090901 12 334 0.0 0.0 0.00 0.16 0.00 86 1019.4
20150329090506 13 334 0.0 0.0 0.00 0.16 0.00 86 1019.3
20150329085402 13 334 0.0 0.0 0.00 0.16 0.00 84 1019.0
20150329083702 14 334 0.0 0.0 0.00 0.16 0.00 81 1018.8
20150329083506 15 334 0.0 0.0 0.00 0.16 0.00 81 1018.8
20150329082202 15 334 0.0 1.0 0.00 0.16 0.00 81 1018.6
20150329081505 16 334 0.0 3.0 0.00 0.16 0.00 80 1018.5
20150329080701 16 334 0.0 4.0 0.00 0.16 0.00 79 1018.5
20150329080505 16 333 1.0 3.0 0.00 0.16 0.00 78 1018.4
20150329075506 16 327 1.0 3.0 0.00 0.16 0.00 78 1018.3
20150329075201 16 331 0.0 2.0 0.00 0.16 0.00 78 1018.3
20150329074505 17 331 0.0 3.0 0.00 0.16 0.00 79 1018.2
20150329073702 17 331 0.0 3.0 0.00 0.16 0.00 76 1018.2
20150329073506 17 330 1.0 3.0 0.00 0.16 0.00 78 1018.2
20150329072506 17 300 0.0 3.0 0.00 0.16 0.00 77 1018.2
20150329072203 17 300 0.0 3.0 0.00 0.16 0.00 73 1018.2
20150329071505 17 346 0.0 3.0 0.00 0.16 0.00 76 1018.1
20150329070506 18 346 0.0 3.0 0.00 0.16 0.00 74 1018.0
20150329070502 17 346 0.0 4.0 0.00 0.16 0.00 74 1018.0
20150329065505 18 355 0.0 3.0 0.00 0.16 0.00 72 1018.0
20150329065002 18 355 0.0 4.0 0.00 0.16 0.00 76 1017.9
20150329063401 19 43 0.0 8.0 0.00 0.16 0.00 72 1017.8
20150329062508 19 343 0.0 3.0 0.00 0.16 0.00 70 1017.7
20150329061902 19 17 1.0 4.0 0.00 0.16 0.00 70 1017.8
20150329061507 20 350 1.0 3.0 0.00 0.16 0.00 70 1017.9
20150329060406 19 347 1.0 5.0 0.00 0.16 0.00 71 1017.7
20150329054803 19 355 1.0 5.0 0.00 0.16 0.00 70 1017.6
20150329054507 20 23 1.0 5.0 0.00 0.16 0.00 72 1017.6
20150329053509 20 328 2.0 12.0 0.00 0.16 0.00 72 1017.6
20150329053302 19 311 1.0 12.0 0.00 0.16 0.16 72 1017.6
20150329052507 19 358 2.0 8.0 0.00 0.16 0.00 70 1017.5
20150329051702 19 349 2.0 8.0 0.00 0.16 0.16 71 1017.4
20150329051506 19 333 1.0 8.0 0.00 0.16 0.00 72 1017.4
20150329050506 19 56 1.0 3.0 0.00 0.16 0.00 72 1017.4
20150329050206 19 5 1.0 7.0 0.00 0.16 0.16 71 1017.4
20150329045516 19 272 1.0 5.0 0.00 0.16 0.00 72 1017.4
20150329044710 19 267 1.0 5.0 0.00 0.16 0.16 70 1017.3
20150329044513 19 281 2.0 6.0 0.00 0.16 0.00 70 1017.3
20150329043513 20 5 2.0 7.0 0.00 0.16 0.00 72 1017.3
20150329043308 19 140 1.0 5.0 0.00 0.16 0.16 70 1017.3
20150329042512 20 315 3.0 7.0 0.00 0.16 0.00 68 1017.3
20150329041708 20 290 1.0 8.0 0.00 0.16 0.16 70 1017.3
20150329041514 20 27 2.0 6.0 0.00 0.16 0.00 70 1017.2
20150329040512 21 343 2.0 7.0 0.00 0.16 0.00 74 1017.2
20150329035512 21 334 2.0 8.0 0.00 0.16 0.16 73 1017.2
20150329034511 22 220 1.0 8.0 0.00 0.16 0.16 77 1017.0
20150329034507 21 309 1.0 8.0 0.00 0.16 0.16 77 1017.0
20150329033008 22 343 1.0 7.0 0.00 0.16 0.16 77 1016.9
20150329032513 22 332 2.0 9.0 0.00 0.16 0.16 77 1016.8
20150329031508 22 322 2.0 8.0 0.00 0.16 0.16 80 1016.6
20150329030008 23 344 1.0 4.0 0.00 0.16 0.16 79 1016.6
20150329025512 24 18 1.0 3.0 0.00 0.16 0.16 80 1016.5
20150329024512 24 311 1.0 5.0 0.00 0.16 0.16 78 1016.4
20150329024508 24 311 0.0 5.0 0.00 0.16 0.16 79 1016.4
20150329022808 24 337 0.0 9.0 0.00 0.16 0.16 80 1016.1